User: anonymous   Login
Location: Dover
(39.1580°N, 75.5250°W)
Time: 00:34:59
(UTC-05:00)
Language:

SeaSat 1 - Orbit

View from above orbital plane
View from above orbital plane
View from above satellite
View from above satellite

Ground track
Ground track

The orbit data is extracted from the following two-line orbital elements,

1 10967U 78064A   18022.84750144 -.00000062  00000-0  22094-4 0  9994
2 10967 108.0192  38.5396 0002495 247.5430 112.5450 14.43691771 78304
Epoch (UTC): 22 January 2018 20:20:24
Eccentricity: 0.0002495
inclination: 108.0192°
perigee height: 744 km
apogee height: 748 km
right ascension of ascending node: 38.5396°
argument of perigee: 247.5430°
revolutions per day: 14.43691771
mean anomaly at epoch: 112.5450°
orbit number at epoch: 7830

The dashed part of the orbit path shows where the satellite is in the earth's shadow,  

DLR